Location: *
(40.7190°N, 4.2480°W)
Time: 09:06:42
(UTC+00:00)

Cosmos 1605 Rocket - Pass Details

Date: 18 February 2020
Orbit: 944 x 1007 km, 82.9° (Epoch: 03 April)

Event Time Altitude Azimuth Distance (km) Brightness Sun altitude
Rises 04:30:52 0° 355° (N) 3,689 7.1 -30.3°
Reaches altitude 10° 04:33:26 10° 358° (N) 2,728 6.4 -29.9°
Maximum altitude 04:39:38 67° 81° (E) 1,038 4.2 -28.7°
Drops below altitude 10° 04:45:43 10° 164° (SSE) 2,671 6.4 -27.6°
Sets 04:48:12 0° 167° (SSE) 3,606 7.0 -27.1°
